Year,Month,Day,Hour,Minute,Value (Times are PST for windgust in km/hr)
2013,09,29,00,00,1.60
2013,09,29,00,02,1.60
2013,09,29,00,03,3.20
2013,09,29,00,06,3.20
2013,09,29,00,07,3.20
2013,09,29,00,08,3.20
2013,09,29,00,09,3.20
2013,09,29,00,11,4.80
2013,09,29,00,12,4.80
2013,09,29,00,13,4.80
2013,09,29,00,14,1.60
2013,09,29,00,18,3.20
2013,09,29,00,19,3.20
2013,09,29,00,25,4.80
2013,09,29,00,26,3.20
2013,09,29,00,27,4.80
2013,09,29,00,28,4.80
2013,09,29,00,29,3.20
2013,09,29,00,30,4.80
2013,09,29,00,31,4.80
2013,09,29,00,32,6.40
2013,09,29,00,33,4.80
2013,09,29,00,34,4.80
2013,09,29,00,35,4.80
2013,09,29,00,36,3.20
2013,09,29,00,37,1.60
2013,09,29,00,38,1.60
2013,09,29,00,39,3.20
2013,09,29,00,40,1.60
2013,09,29,00,45,4.80
2013,09,29,00,46,6.40
2013,09,29,00,47,6.40
2013,09,29,00,48,4.80
2013,09,29,00,49,4.80
2013,09,29,00,50,4.80
2013,09,29,00,51,6.40
2013,09,29,00,52,9.60
2013,09,29,00,53,6.40
2013,09,29,00,54,6.40
2013,09,29,00,55,3.20
2013,09,29,00,56,4.80
2013,09,29,00,57,3.20
2013,09,29,00,59,3.20
2013,09,29,01,00,3.20
2013,09,29,01,05,1.60
2013,09,29,01,13,1.60
2013,09,29,01,14,3.20
2013,09,29,01,15,4.80
2013,09,29,01,16,4.80
2013,09,29,01,17,6.40
2013,09,29,01,18,6.40
2013,09,29,01,19,6.40
2013,09,29,01,21,6.40
2013,09,29,01,22,6.40
2013,09,29,01,23,4.80
2013,09,29,01,24,4.80
2013,09,29,01,25,4.80
2013,09,29,01,26,6.40
2013,09,29,01,27,6.40
2013,09,29,01,28,8.10
2013,09,29,01,29,9.60
2013,09,29,01,30,8.10
2013,09,29,01,31,6.40
2013,09,29,01,34,8.10
2013,09,29,01,35,14.50
2013,09,29,01,36,16.10
2013,09,29,01,37,9.60
2013,09,29,01,38,9.60
2013,09,29,01,39,11.30
2013,09,29,01,40,9.60
2013,09,29,01,41,8.10
2013,09,29,01,42,3.20
2013,09,29,01,44,4.80
2013,09,29,01,45,6.40
2013,09,29,01,46,8.10
2013,09,29,01,47,14.50
2013,09,29,01,48,12.90
2013,09,29,01,49,8.10
2013,09,29,01,50,11.30
2013,09,29,01,51,8.10
2013,09,29,01,52,9.60
2013,09,29,01,53,14.50
2013,09,29,01,54,9.60
2013,09,29,01,55,6.40
2013,09,29,01,56,12.90
2013,09,29,01,57,11.30
2013,09,29,01,58,8.10
2013,09,29,01,59,4.80
2013,09,29,02,00,3.20
2013,09,29,02,04,1.60
2013,09,29,02,06,3.20
2013,09,29,02,16,1.60
2013,09,29,02,17,3.20
2013,09,29,02,18,3.20
2013,09,29,02,19,4.80
2013,09,29,02,20,3.20
2013,09,29,02,21,6.40
2013,09,29,02,22,4.80
2013,09,29,02,23,6.40
2013,09,29,02,24,3.20
2013,09,29,02,28,1.60
2013,09,29,02,29,3.20
2013,09,29,02,30,3.20
2013,09,29,02,37,3.20
2013,09,29,02,38,1.60
2013,09,29,02,39,3.20
2013,09,29,02,40,4.80
2013,09,29,02,41,6.40
2013,09,29,02,42,8.10
2013,09,29,02,43,8.10
2013,09,29,02,44,6.40
2013,09,29,02,45,8.10
2013,09,29,02,46,6.40
2013,09,29,02,47,6.40
2013,09,29,02,48,8.10
2013,09,29,02,49,11.30
2013,09,29,02,50,8.10
2013,09,29,02,51,9.60
2013,09,29,02,52,6.40
2013,09,29,02,53,8.10
2013,09,29,02,54,8.10
2013,09,29,02,55,4.80
2013,09,29,02,56,4.80
2013,09,29,02,57,4.80
2013,09,29,02,58,3.20
2013,09,29,02,59,4.80
2013,09,29,03,00,4.80
2013,09,29,03,01,3.20
2013,09,29,03,02,8.10
2013,09,29,03,03,6.40
2013,09,29,03,04,6.40
2013,09,29,03,05,6.40
2013,09,29,03,06,6.40
2013,09,29,03,07,4.80
2013,09,29,03,08,8.10
2013,09,29,03,09,4.80
2013,09,29,03,10,6.40
2013,09,29,03,11,4.80
2013,09,29,03,12,4.80
2013,09,29,03,13,6.40
2013,09,29,03,14,6.40
2013,09,29,03,15,3.20
2013,09,29,03,16,4.80
2013,09,29,03,17,3.20
2013,09,29,03,18,4.80
2013,09,29,03,19,4.80
2013,09,29,03,20,6.40
2013,09,29,03,21,6.40
2013,09,29,03,22,8.10
2013,09,29,03,23,9.60
2013,09,29,03,24,9.60
2013,09,29,03,25,9.60
2013,09,29,03,26,11.30
2013,09,29,03,27,9.60
2013,09,29,03,28,8.10
2013,09,29,03,29,8.10
2013,09,29,03,30,11.30
2013,09,29,03,31,8.10
2013,09,29,03,32,9.60
2013,09,29,03,33,9.60
2013,09,29,03,34,6.40
2013,09,29,03,35,4.80
2013,09,29,03,36,4.80
2013,09,29,03,37,4.80
2013,09,29,03,38,4.80
2013,09,29,03,39,9.60
2013,09,29,03,40,11.30
2013,09,29,03,41,8.10
2013,09,29,03,42,8.10
2013,09,29,03,43,8.10
2013,09,29,03,44,6.40
2013,09,29,03,45,9.60
2013,09,29,03,46,8.10
2013,09,29,03,47,6.40
2013,09,29,03,48,3.20
2013,09,29,03,49,4.80
2013,09,29,03,50,3.20
2013,09,29,03,53,3.20
2013,09,29,03,54,4.80
2013,09,29,03,55,3.20
2013,09,29,03,56,4.80
2013,09,29,03,57,6.40
2013,09,29,03,58,3.20
2013,09,29,04,00,1.60
2013,09,29,04,01,3.20
2013,09,29,04,02,1.60
2013,09,29,04,06,3.20
2013,09,29,04,07,4.80
2013,09,29,04,08,4.80
2013,09,29,04,09,3.20
2013,09,29,04,10,4.80
2013,09,29,04,11,4.80
2013,09,29,04,12,3.20
2013,09,29,04,13,3.20
2013,09,29,04,14,3.20
2013,09,29,04,16,3.20
2013,09,29,04,17,4.80
2013,09,29,04,18,4.80
2013,09,29,04,19,1.60
2013,09,29,04,27,4.80
2013,09,29,04,28,1.60
2013,09,29,04,29,1.60
2013,09,29,04,31,1.60
2013,09,29,04,32,3.20
2013,09,29,04,33,3.20
2013,09,29,04,34,4.80
2013,09,29,04,35,4.80
2013,09,29,04,36,4.80
2013,09,29,04,37,8.10
2013,09,29,04,38,6.40
2013,09,29,04,39,6.40
2013,09,29,04,40,4.80
2013,09,29,04,41,6.40
2013,09,29,04,42,6.40
2013,09,29,04,43,8.10
2013,09,29,04,44,8.10
2013,09,29,04,45,4.80
2013,09,29,04,46,3.20
2013,09,29,04,47,4.80
2013,09,29,04,48,6.40
2013,09,29,04,49,6.40
2013,09,29,04,50,6.40
2013,09,29,04,51,6.40
2013,09,29,04,52,4.80
2013,09,29,04,53,4.80
2013,09,29,04,54,6.40
2013,09,29,04,55,4.80
2013,09,29,04,56,4.80
2013,09,29,04,57,11.30
2013,09,29,04,58,9.60
2013,09,29,04,59,8.10
2013,09,29,05,00,8.10
2013,09,29,05,01,4.80
2013,09,29,05,02,3.20
2013,09,29,05,03,4.80
2013,09,29,05,04,4.80
2013,09,29,05,05,4.80
2013,09,29,05,06,8.10
2013,09,29,05,07,8.10
2013,09,29,05,08,8.10
2013,09,29,05,09,8.10
2013,09,29,05,10,8.10
2013,09,29,05,11,8.10
2013,09,29,05,12,9.60
2013,09,29,05,13,9.60
2013,09,29,05,14,9.60
2013,09,29,05,15,9.60
2013,09,29,05,16,8.10
2013,09,29,05,17,8.10
2013,09,29,05,18,4.80
2013,09,29,05,19,4.80
2013,09,29,05,20,3.20
2013,09,29,05,22,3.20
2013,09,29,05,23,1.60
2013,09,29,05,24,3.20
2013,09,29,05,25,4.80
2013,09,29,05,26,4.80
2013,09,29,05,27,6.40
2013,09,29,05,28,4.80
2013,09,29,05,29,4.80
2013,09,29,05,30,6.40
2013,09,29,05,31,4.80
2013,09,29,05,32,4.80
2013,09,29,05,33,6.40
2013,09,29,05,34,6.40
2013,09,29,05,35,8.10
2013,09,29,05,36,6.40
2013,09,29,05,37,4.80
2013,09,29,05,38,6.40
2013,09,29,05,39,4.80
2013,09,29,05,40,4.80
2013,09,29,05,41,4.80
2013,09,29,05,42,6.40
2013,09,29,05,43,6.40
2013,09,29,05,44,6.40
2013,09,29,05,45,3.20
2013,09,29,05,46,6.40
2013,09,29,05,47,6.40
2013,09,29,05,48,6.40
2013,09,29,05,49,6.40
2013,09,29,05,50,6.40
2013,09,29,05,51,6.40
2013,09,29,05,52,3.20
2013,09,29,05,53,8.10
2013,09,29,05,54,11.30
2013,09,29,05,55,8.10
2013,09,29,05,56,4.80
2013,09,29,05,57,6.40
2013,09,29,05,58,8.10
2013,09,29,05,59,14.50
2013,09,29,06,00,11.30
2013,09,29,06,01,12.90
2013,09,29,06,02,16.10
2013,09,29,06,03,11.30
2013,09,29,06,04,14.50
2013,09,29,06,05,19.30
2013,09,29,06,06,19.30
2013,09,29,06,07,14.50
2013,09,29,06,08,14.50
2013,09,29,06,09,17.70
2013,09,29,06,10,17.70
2013,09,29,06,11,16.10
2013,09,29,06,12,14.50
2013,09,29,06,13,8.10
2013,09,29,06,14,11.30
2013,09,29,06,15,14.50
2013,09,29,06,16,19.30
2013,09,29,06,17,11.30
2013,09,29,06,18,12.90
2013,09,29,06,19,9.60
2013,09,29,06,20,11.30
2013,09,29,06,21,16.10
2013,09,29,06,22,11.30
2013,09,29,06,23,17.70
2013,09,29,06,24,14.50
2013,09,29,06,25,14.50
2013,09,29,06,26,14.50
2013,09,29,06,27,12.90
2013,09,29,06,28,14.50
2013,09,29,06,29,9.60
2013,09,29,06,30,12.90
2013,09,29,06,31,11.30
2013,09,29,06,32,11.30
2013,09,29,06,33,11.30
2013,09,29,06,34,14.50
2013,09,29,06,35,9.60
2013,09,29,06,36,12.90
2013,09,29,06,37,14.50
2013,09,29,06,38,16.10
2013,09,29,06,39,16.10
2013,09,29,06,40,11.30
2013,09,29,06,41,17.70
2013,09,29,06,42,14.50
2013,09,29,06,43,20.90
2013,09,29,06,44,16.10
2013,09,29,06,45,11.30
2013,09,29,06,46,17.70
2013,09,29,06,47,12.90
2013,09,29,06,48,12.90
2013,09,29,06,49,17.70
2013,09,29,06,50,19.30
2013,09,29,06,51,19.30
2013,09,29,06,52,17.70
2013,09,29,06,53,17.70
2013,09,29,06,54,16.10
2013,09,29,06,55,17.70
2013,09,29,06,56,16.10
2013,09,29,06,57,20.90
2013,09,29,06,58,20.90
2013,09,29,06,59,17.70
2013,09,29,07,00,11.30
2013,09,29,07,01,11.30
2013,09,29,07,02,17.70
2013,09,29,07,03,24.20
2013,09,29,07,04,19.30
2013,09,29,07,05,17.70
2013,09,29,07,06,14.50
2013,09,29,07,07,11.30
2013,09,29,07,08,19.30
2013,09,29,07,09,14.50
2013,09,29,07,10,12.90
2013,09,29,07,11,11.30
2013,09,29,07,12,8.10
2013,09,29,07,13,8.10
2013,09,29,07,14,8.10
2013,09,29,07,15,12.90
2013,09,29,07,16,16.10
2013,09,29,07,17,11.30
2013,09,29,07,18,11.30
2013,09,29,07,19,8.10
2013,09,29,07,20,11.30
2013,09,29,07,21,9.60
2013,09,29,07,22,8.10
2013,09,29,07,23,9.60
2013,09,29,07,24,9.60
2013,09,29,07,25,9.60
2013,09,29,07,26,9.60
2013,09,29,07,27,6.40
2013,09,29,07,28,8.10
2013,09,29,07,29,11.30
2013,09,29,07,30,11.30
2013,09,29,07,31,11.30
2013,09,29,07,32,8.10
2013,09,29,07,33,9.60
2013,09,29,07,34,6.40
2013,09,29,07,35,8.10
2013,09,29,07,36,8.10
2013,09,29,07,37,9.60
2013,09,29,07,38,11.30
2013,09,29,07,39,12.90
2013,09,29,07,40,8.10
2013,09,29,07,41,6.40
2013,09,29,07,42,6.40
2013,09,29,07,43,11.30
2013,09,29,07,44,11.30
2013,09,29,07,45,11.30
2013,09,29,07,46,16.10
2013,09,29,07,47,19.30
2013,09,29,07,48,14.50
2013,09,29,07,49,16.10
2013,09,29,07,50,16.10
2013,09,29,07,51,12.90
2013,09,29,07,52,17.70
2013,09,29,07,53,17.70
2013,09,29,07,54,17.70
2013,09,29,07,55,17.70
2013,09,29,07,56,20.90
2013,09,29,07,57,19.30
2013,09,29,07,58,20.90
2013,09,29,07,59,16.10
2013,09,29,08,00,17.70
2013,09,29,08,01,17.70
2013,09,29,08,02,16.10
2013,09,29,08,03,19.30
2013,09,29,08,04,14.50
2013,09,29,08,05,16.10
2013,09,29,08,06,14.50
2013,09,29,08,07,9.60
2013,09,29,08,08,11.30
2013,09,29,08,09,16.10
2013,09,29,08,10,11.30
2013,09,29,08,11,11.30
2013,09,29,08,12,16.10
2013,09,29,08,13,11.30
2013,09,29,08,14,11.30
2013,09,29,08,15,8.10
2013,09,29,08,16,9.60
2013,09,29,08,17,14.50
2013,09,29,08,18,16.10
2013,09,29,08,19,12.90
2013,09,29,08,20,8.10
2013,09,29,08,21,9.60
2013,09,29,08,22,14.50
2013,09,29,08,23,12.90
2013,09,29,08,24,16.10
2013,09,29,08,25,19.30
2013,09,29,08,26,22.50
2013,09,29,08,27,14.50
2013,09,29,08,28,14.50
2013,09,29,08,29,14.50
2013,09,29,08,30,16.10
2013,09,29,08,31,14.50
2013,09,29,08,32,14.50
2013,09,29,08,33,16.10
2013,09,29,08,34,16.10
2013,09,29,08,35,12.90
2013,09,29,08,36,11.30
2013,09,29,08,37,9.60
2013,09,29,08,38,14.50
2013,09,29,08,39,9.60
2013,09,29,08,40,11.30
2013,09,29,08,41,11.30
2013,09,29,08,42,11.30
2013,09,29,08,43,11.30
2013,09,29,08,44,9.60
2013,09,29,08,45,8.10
2013,09,29,08,46,11.30
2013,09,29,08,47,11.30
2013,09,29,08,48,8.10
2013,09,29,08,49,8.10
2013,09,29,08,50,8.10
2013,09,29,08,51,9.60
2013,09,29,08,52,9.60
2013,09,29,08,53,14.50
2013,09,29,08,54,12.90
2013,09,29,08,55,17.70
2013,09,29,08,56,19.30
2013,09,29,08,57,19.30
2013,09,29,08,58,22.50
2013,09,29,08,59,17.70
2013,09,29,09,00,19.30
2013,09,29,09,01,24.20
2013,09,29,09,02,19.30
2013,09,29,09,03,19.30
2013,09,29,09,04,20.90
2013,09,29,09,05,20.90
2013,09,29,09,06,17.70
2013,09,29,09,07,16.10
2013,09,29,09,08,12.90
2013,09,29,09,09,22.50
2013,09,29,09,10,16.10
2013,09,29,09,11,14.50
2013,09,29,09,12,16.10
2013,09,29,09,13,14.50
2013,09,29,09,14,14.50
2013,09,29,09,15,12.90
2013,09,29,09,16,11.30
2013,09,29,09,17,12.90
2013,09,29,09,18,11.30
2013,09,29,09,19,9.60
2013,09,29,09,20,9.60
2013,09,29,09,21,11.30
2013,09,29,09,22,11.30
2013,09,29,09,23,14.50
2013,09,29,09,24,6.40
2013,09,29,09,25,9.60
2013,09,29,09,26,4.80
2013,09,29,09,27,6.40
2013,09,29,09,28,6.40
2013,09,29,09,29,6.40
2013,09,29,09,30,4.80
2013,09,29,09,31,3.20
2013,09,29,09,33,4.80
2013,09,29,09,34,4.80
2013,09,29,09,35,3.20
2013,09,29,09,36,3.20
2013,09,29,09,37,3.20
2013,09,29,09,39,1.60
2013,09,29,09,40,4.80
2013,09,29,09,41,6.40
2013,09,29,09,42,8.10
2013,09,29,09,43,6.40
2013,09,29,09,44,4.80
2013,09,29,09,45,6.40
2013,09,29,09,46,6.40
2013,09,29,09,47,4.80
2013,09,29,09,48,4.80
2013,09,29,09,49,8.10
2013,09,29,09,50,6.40
2013,09,29,09,51,8.10
2013,09,29,09,52,4.80
2013,09,29,09,53,3.20
2013,09,29,09,54,6.40
2013,09,29,09,55,4.80
2013,09,29,09,56,6.40
2013,09,29,09,57,4.80
2013,09,29,09,58,1.60
2013,09,29,09,59,3.20
2013,09,29,10,00,3.20
2013,09,29,10,01,4.80
2013,09,29,10,02,3.20
2013,09,29,10,03,1.60
2013,09,29,10,05,4.80
2013,09,29,10,06,3.20
2013,09,29,10,07,4.80
2013,09,29,10,08,3.20
2013,09,29,10,09,3.20
2013,09,29,10,10,1.60
2013,09,29,10,11,4.80
2013,09,29,10,12,4.80
2013,09,29,10,13,3.20
2013,09,29,10,14,3.20
2013,09,29,10,15,3.20
2013,09,29,10,16,4.80
2013,09,29,10,17,4.80
2013,09,29,10,18,16.10
2013,09,29,10,19,9.60
2013,09,29,10,20,8.10
2013,09,29,10,21,6.40
2013,09,29,10,22,8.10
2013,09,29,10,23,9.60
2013,09,29,10,24,8.10
2013,09,29,10,25,9.60
2013,09,29,10,26,6.40
2013,09,29,10,29,3.20
2013,09,29,10,30,1.60
2013,09,29,10,31,4.80
2013,09,29,10,32,6.40
2013,09,29,10,33,6.40
2013,09,29,10,34,6.40
2013,09,29,10,35,4.80
2013,09,29,10,36,4.80
2013,09,29,10,37,4.80
2013,09,29,10,38,3.20
2013,09,29,10,39,4.80
2013,09,29,10,40,3.20
2013,09,29,10,41,8.10
2013,09,29,10,42,6.40
2013,09,29,10,43,6.40
2013,09,29,10,44,4.80
2013,09,29,10,45,8.10
2013,09,29,10,46,8.10
2013,09,29,10,47,8.10
2013,09,29,10,48,9.60
2013,09,29,10,49,8.10
2013,09,29,10,50,8.10
2013,09,29,10,51,9.60
2013,09,29,10,52,8.10
2013,09,29,10,53,8.10
2013,09,29,10,54,8.10
2013,09,29,10,55,8.10
2013,09,29,10,56,6.40
2013,09,29,10,57,8.10
2013,09,29,10,58,8.10
2013,09,29,10,59,8.10
2013,09,29,11,00,9.60
2013,09,29,11,01,9.60
2013,09,29,11,02,8.10
2013,09,29,11,03,8.10
2013,09,29,11,04,6.40
2013,09,29,11,05,11.30
2013,09,29,11,06,6.40
2013,09,29,11,07,11.30
2013,09,29,11,08,12.90
2013,09,29,11,09,11.30
2013,09,29,11,10,9.60
2013,09,29,11,11,9.60
2013,09,29,11,12,8.10
2013,09,29,11,13,6.40
2013,09,29,11,14,8.10
2013,09,29,11,15,8.10
2013,09,29,11,16,6.40
2013,09,29,11,17,6.40
2013,09,29,11,18,6.40
2013,09,29,11,19,6.40
2013,09,29,11,20,6.40
2013,09,29,11,21,6.40
2013,09,29,11,22,6.40
2013,09,29,11,23,4.80
2013,09,29,11,24,6.40
2013,09,29,11,25,8.10
2013,09,29,11,26,8.10
2013,09,29,11,27,8.10
2013,09,29,11,28,9.60
2013,09,29,11,29,11.30
2013,09,29,11,30,9.60
2013,09,29,11,31,3.20
2013,09,29,11,32,9.60
2013,09,29,11,33,8.10
2013,09,29,11,34,6.40
2013,09,29,11,35,3.20
2013,09,29,11,36,8.10
2013,09,29,11,37,9.60
2013,09,29,11,38,11.30
2013,09,29,11,39,11.30
2013,09,29,11,40,11.30
2013,09,29,11,41,8.10
2013,09,29,11,42,9.60
2013,09,29,11,43,4.80
2013,09,29,11,44,8.10
2013,09,29,11,45,6.40
2013,09,29,11,46,11.30
2013,09,29,11,47,4.80
2013,09,29,11,48,3.20
2013,09,29,11,54,3.20
2013,09,29,11,55,4.80
2013,09,29,11,56,4.80
2013,09,29,11,57,4.80
2013,09,29,11,58,3.20
2013,09,29,12,01,3.20
2013,09,29,12,02,4.80
2013,09,29,12,03,6.40
2013,09,29,12,04,6.40
2013,09,29,12,05,4.80
2013,09,29,12,06,3.20
2013,09,29,12,07,6.40
2013,09,29,12,08,6.40
2013,09,29,12,09,6.40
2013,09,29,12,11,1.60
2013,09,29,12,14,4.80
2013,09,29,12,15,4.80
2013,09,29,12,17,3.20
2013,09,29,12,18,3.20
2013,09,29,12,19,3.20
2013,09,29,12,20,4.80
2013,09,29,12,22,4.80
2013,09,29,12,23,4.80
2013,09,29,12,24,4.80
2013,09,29,12,29,3.20
2013,09,29,12,32,1.60
2013,09,29,12,33,3.20
2013,09,29,12,36,6.40
2013,09,29,12,37,9.60
2013,09,29,12,38,6.40
2013,09,29,12,39,6.40
2013,09,29,12,43,1.60
2013,09,29,12,44,4.80
2013,09,29,12,45,3.20
2013,09,29,12,46,3.20
2013,09,29,12,47,4.80
2013,09,29,12,48,4.80
2013,09,29,12,49,4.80
2013,09,29,12,51,4.80
2013,09,29,12,52,6.40
2013,09,29,12,53,8.10
2013,09,29,12,54,6.40
2013,09,29,12,55,4.80
2013,09,29,12,56,3.20
2013,09,29,12,57,6.40
2013,09,29,12,58,6.40
2013,09,29,12,59,8.10
2013,09,29,13,00,8.10
2013,09,29,13,01,4.80
2013,09,29,13,02,8.10
2013,09,29,13,03,9.60
2013,09,29,13,04,8.10
2013,09,29,13,05,4.80
2013,09,29,13,06,6.40
2013,09,29,13,07,6.40
2013,09,29,13,08,6.40
2013,09,29,13,09,4.80
2013,09,29,13,10,6.40
2013,09,29,13,11,9.60
2013,09,29,13,12,8.10
2013,09,29,13,13,8.10
2013,09,29,13,14,6.40
2013,09,29,13,15,6.40
2013,09,29,13,16,8.10
2013,09,29,13,17,9.60
2013,09,29,13,18,9.60
2013,09,29,13,19,8.10
2013,09,29,13,20,8.10
2013,09,29,13,21,6.40
2013,09,29,13,22,8.10
2013,09,29,13,23,9.60
2013,09,29,13,24,9.60
2013,09,29,13,25,6.40
2013,09,29,13,26,6.40
2013,09,29,13,27,6.40
2013,09,29,13,28,4.80
2013,09,29,13,30,4.80
2013,09,29,13,31,6.40
2013,09,29,13,32,6.40
2013,09,29,13,33,6.40
2013,09,29,13,34,8.10
2013,09,29,13,35,6.40
2013,09,29,13,36,6.40
2013,09,29,13,37,1.60
2013,09,29,13,38,4.80
2013,09,29,13,39,3.20
2013,09,29,13,40,6.40
2013,09,29,13,41,4.80
2013,09,29,13,42,4.80
2013,09,29,13,43,4.80
2013,09,29,13,44,4.80
2013,09,29,13,45,4.80
2013,09,29,13,46,3.20
2013,09,29,13,47,1.60
2013,09,29,13,48,3.20
2013,09,29,13,49,4.80
2013,09,29,13,50,4.80
2013,09,29,13,51,4.80
2013,09,29,13,52,4.80
2013,09,29,13,53,6.40
2013,09,29,13,54,4.80
2013,09,29,13,55,4.80
2013,09,29,13,57,3.20
2013,09,29,13,58,4.80
2013,09,29,13,59,6.40
2013,09,29,14,00,6.40
2013,09,29,14,01,6.40
2013,09,29,14,02,6.40
2013,09,29,14,05,3.20
2013,09,29,14,06,6.40
2013,09,29,14,07,4.80
2013,09,29,14,08,4.80
2013,09,29,14,09,3.20
2013,09,29,14,10,4.80
2013,09,29,14,11,6.40
2013,09,29,14,12,4.80
2013,09,29,14,13,4.80
2013,09,29,14,14,6.40
2013,09,29,14,15,6.40
2013,09,29,14,16,4.80
2013,09,29,14,17,4.80
2013,09,29,14,18,1.60
2013,09,29,14,19,3.20
2013,09,29,14,20,8.10
2013,09,29,14,21,8.10
2013,09,29,14,22,6.40
2013,09,29,14,23,6.40
2013,09,29,14,24,11.30
2013,09,29,14,25,11.30
2013,09,29,14,26,9.60
2013,09,29,14,27,8.10
2013,09,29,14,28,6.40
2013,09,29,14,29,4.80
2013,09,29,14,30,6.40
2013,09,29,14,31,6.40
2013,09,29,14,32,3.20
2013,09,29,14,33,1.60
2013,09,29,14,34,4.80
2013,09,29,14,35,6.40
2013,09,29,14,36,4.80
2013,09,29,14,37,4.80
2013,09,29,14,38,4.80
2013,09,29,14,39,6.40
2013,09,29,14,40,6.40
2013,09,29,14,41,4.80
2013,09,29,14,42,4.80
2013,09,29,14,43,4.80
2013,09,29,14,44,6.40
2013,09,29,14,45,6.40
2013,09,29,14,46,6.40
2013,09,29,14,47,6.40
2013,09,29,14,48,8.10
2013,09,29,14,49,8.10
2013,09,29,14,50,6.40
2013,09,29,14,51,8.10
2013,09,29,14,52,6.40
2013,09,29,14,53,6.40
2013,09,29,14,54,8.10
2013,09,29,14,55,9.60
2013,09,29,14,56,6.40
2013,09,29,14,57,6.40
2013,09,29,14,58,8.10
2013,09,29,14,59,6.40
2013,09,29,15,00,9.60
2013,09,29,15,01,8.10
2013,09,29,15,02,6.40
2013,09,29,15,03,6.40
2013,09,29,15,04,6.40
2013,09,29,15,05,6.40
2013,09,29,15,06,6.40
2013,09,29,15,07,8.10
2013,09,29,15,08,8.10
2013,09,29,15,09,1.60
2013,09,29,15,10,8.10
2013,09,29,15,11,6.40
2013,09,29,15,12,4.80
2013,09,29,15,13,4.80
2013,09,29,15,14,4.80
2013,09,29,15,15,8.10
2013,09,29,15,16,6.40
2013,09,29,15,17,6.40
2013,09,29,15,18,4.80
2013,09,29,15,19,8.10
2013,09,29,15,20,8.10
2013,09,29,15,21,6.40
2013,09,29,15,22,8.10
2013,09,29,15,23,6.40
2013,09,29,15,24,4.80
2013,09,29,15,26,4.80
2013,09,29,15,27,4.80
2013,09,29,15,28,4.80
2013,09,29,15,29,4.80
2013,09,29,15,30,9.60
2013,09,29,15,31,8.10
2013,09,29,15,32,9.60
2013,09,29,15,33,9.60
2013,09,29,15,34,11.30
2013,09,29,15,35,12.90
2013,09,29,15,36,14.50
2013,09,29,15,37,16.10
2013,09,29,15,38,11.30
2013,09,29,15,39,14.50
2013,09,29,15,40,8.10
2013,09,29,15,41,16.10
2013,09,29,15,42,19.30
2013,09,29,15,43,8.10
2013,09,29,15,44,11.30
2013,09,29,15,45,12.90
2013,09,29,15,46,16.10
2013,09,29,15,47,11.30
2013,09,29,15,48,8.10
2013,09,29,15,49,11.30
2013,09,29,15,50,14.50
2013,09,29,15,51,12.90
2013,09,29,15,52,16.10
2013,09,29,15,53,17.70
2013,09,29,15,54,20.90
2013,09,29,15,55,24.20
2013,09,29,15,56,22.50
2013,09,29,15,57,24.20
2013,09,29,15,58,27.40
2013,09,29,15,59,24.20
2013,09,29,16,00,32.20
2013,09,29,16,01,25.70
2013,09,29,16,02,22.50
2013,09,29,16,03,20.90
2013,09,29,16,04,22.50
2013,09,29,16,05,22.50
2013,09,29,16,06,29.00
2013,09,29,16,07,29.00
2013,09,29,16,08,27.40
2013,09,29,16,09,29.00
2013,09,29,16,10,33.80
2013,09,29,16,11,41.80
2013,09,29,16,12,37.00
2013,09,29,16,13,35.40
2013,09,29,16,14,37.00
2013,09,29,16,15,41.80
2013,09,29,16,16,30.60
2013,09,29,16,17,27.40
2013,09,29,16,18,37.00
2013,09,29,16,19,35.40
2013,09,29,16,20,40.20
2013,09,29,16,21,38.60
2013,09,29,16,22,32.20
2013,09,29,16,23,40.20
2013,09,29,16,24,49.90
2013,09,29,16,25,45.10
2013,09,29,16,26,35.40
2013,09,29,16,27,43.50
2013,09,29,16,28,49.90
2013,09,29,16,29,38.60
2013,09,29,16,30,40.20
2013,09,29,16,31,38.60
2013,09,29,16,32,37.00
2013,09,29,16,33,37.00
2013,09,29,16,34,45.10
2013,09,29,16,35,46.70
2013,09,29,16,36,38.60
2013,09,29,16,37,38.60
2013,09,29,16,38,41.80
2013,09,29,16,39,40.20
2013,09,29,16,40,46.70
2013,09,29,16,41,49.90
2013,09,29,16,42,35.40
2013,09,29,16,43,46.70
2013,09,29,16,44,46.70
2013,09,29,16,45,45.10
2013,09,29,16,46,38.60
2013,09,29,16,47,40.20
2013,09,29,16,48,51.50
2013,09,29,16,49,53.10
2013,09,29,16,50,53.10
2013,09,29,16,51,49.90
2013,09,29,16,52,54.70
2013,09,29,16,53,51.50
2013,09,29,16,54,48.30
2013,09,29,16,55,45.10
2013,09,29,16,56,59.50
2013,09,29,16,57,53.10
2013,09,29,16,58,51.50
2013,09,29,16,59,43.50
2013,09,29,17,00,53.10
2013,09,29,17,01,46.70
2013,09,29,17,02,37.00
2013,09,29,17,03,53.10
2013,09,29,17,04,45.10
2013,09,29,17,05,38.60
2013,09,29,17,06,43.50
2013,09,29,17,07,43.50
2013,09,29,17,08,51.50
2013,09,29,17,09,51.50
2013,09,29,17,10,49.90
2013,09,29,17,11,41.80
2013,09,29,17,12,40.20
2013,09,29,17,13,46.70
2013,09,29,17,14,51.50
2013,09,29,17,15,54.70
2013,09,29,17,16,43.50
2013,09,29,17,17,46.70
2013,09,29,17,18,53.10
2013,09,29,17,19,41.80
2013,09,29,17,20,45.10
2013,09,29,17,21,48.30
2013,09,29,17,22,45.10
2013,09,29,17,23,38.60
2013,09,29,17,24,48.30
2013,09,29,17,25,37.00
2013,09,29,17,26,43.50
2013,09,29,17,27,40.20
2013,09,29,17,28,48.30
2013,09,29,17,29,48.30
2013,09,29,17,30,51.50
2013,09,29,17,31,40.20
2013,09,29,17,32,43.50
2013,09,29,17,33,48.30
2013,09,29,17,34,53.10
2013,09,29,17,35,43.50
2013,09,29,17,36,49.90
2013,09,29,17,37,48.30
2013,09,29,17,38,53.10
2013,09,29,17,39,54.70
2013,09,29,17,40,49.90
2013,09,29,17,41,57.90
2013,09,29,17,42,61.20
2013,09,29,17,43,57.90
2013,09,29,17,44,48.30
2013,09,29,17,45,53.10
2013,09,29,17,46,54.70
2013,09,29,17,47,54.70
2013,09,29,17,48,53.10
2013,09,29,17,49,54.70
2013,09,29,17,50,37.00
2013,09,29,17,51,45.10
2013,09,29,17,52,49.90
2013,09,29,17,53,41.80
2013,09,29,17,54,45.10
2013,09,29,17,55,53.10
2013,09,29,17,56,48.30
2013,09,29,17,57,49.90
2013,09,29,17,58,49.90
2013,09,29,17,59,40.20
2013,09,29,18,00,45.10
2013,09,29,18,01,53.10
2013,09,29,18,02,43.50
2013,09,29,18,03,48.30
2013,09,29,18,04,51.50
2013,09,29,18,05,38.60
2013,09,29,18,06,48.30
2013,09,29,18,07,40.20
2013,09,29,18,08,51.50
2013,09,29,18,09,61.20
2013,09,29,18,10,46.70
2013,09,29,18,11,45.10
2013,09,29,18,12,41.80
2013,09,29,18,13,54.70
2013,09,29,18,14,45.10
2013,09,29,18,15,40.20
2013,09,29,18,16,49.90
2013,09,29,18,17,56.30
2013,09,29,18,18,51.50
2013,09,29,18,19,56.30
2013,09,29,18,20,46.70
2013,09,29,18,21,53.10
2013,09,29,18,22,45.10
2013,09,29,18,23,57.90
2013,09,29,18,24,48.30
2013,09,29,18,25,43.50
2013,09,29,18,26,53.10
2013,09,29,18,27,59.50
2013,09,29,18,28,53.10
2013,09,29,18,29,56.30
2013,09,29,18,30,56.30
2013,09,29,18,31,66.00
2013,09,29,18,32,51.50
2013,09,29,18,33,64.40
2013,09,29,18,34,53.10
2013,09,29,18,35,49.90
2013,09,29,18,36,70.80
2013,09,29,18,37,57.90
2013,09,29,18,38,51.50
2013,09,29,18,39,64.40
2013,09,29,18,40,48.30
2013,09,29,18,41,57.90
2013,09,29,18,42,45.10
2013,09,29,18,43,56.30
2013,09,29,18,44,67.60
2013,09,29,18,45,53.10
2013,09,29,18,46,57.90
2013,09,29,18,47,66.00
2013,09,29,18,48,53.10
2013,09,29,18,49,57.90
2013,09,29,18,50,54.70
2013,09,29,18,51,61.20
2013,09,29,18,52,57.90
2013,09,29,18,53,61.20
2013,09,29,18,54,53.10
2013,09,29,18,55,67.60
2013,09,29,18,56,59.50
2013,09,29,18,57,54.70
2013,09,29,18,58,64.40
2013,09,29,18,59,61.20
2013,09,29,19,00,54.70
2013,09,29,19,01,56.30
2013,09,29,19,02,57.90
2013,09,29,19,03,59.50
2013,09,29,19,04,53.10
2013,09,29,19,05,57.90
2013,09,29,19,06,66.00
2013,09,29,19,07,62.70
2013,09,29,19,08,62.70
2013,09,29,19,09,57.90
2013,09,29,19,10,53.10
2013,09,29,19,11,54.70
2013,09,29,19,12,48.30
2013,09,29,19,13,64.40
2013,09,29,19,14,49.90
2013,09,29,19,15,43.50
2013,09,29,19,16,45.10
2013,09,29,19,17,48.30
2013,09,29,19,18,53.10
2013,09,29,19,19,54.70
2013,09,29,19,20,59.50
2013,09,29,19,21,54.70
2013,09,29,19,22,53.10
2013,09,29,19,23,35.40
2013,09,29,19,24,43.50
2013,09,29,19,25,48.30
2013,09,29,19,26,37.00
2013,09,29,19,27,41.80
2013,09,29,19,28,37.00
2013,09,29,19,29,41.80
2013,09,29,19,30,38.60
2013,09,29,19,31,27.40